Вернуться в каталог

STARLINK-32763

АктивенСвязьVLEO
NORAD 62750·PAYLOAD·🇺🇸 United States

Запущен Jan 21, 2025 с Cape Canaveral Space Force Station

Loading…

Ближайшие Пролёты (ближайшие 24 часа)

TLE

СвежийSource: CelesTrak SupGP

Эпоха: Sep 14, 2026, 20:45 UTC

1 62750C 25014R   26257.86506944 -.00018695  00000+0 -67688-3 0  2571
2 62750  43.0026 165.7853 0001388 268.9955  35.8895 15.27599948    14

Отслеживайте STARLINK-32763 в реальном времени с AllMySat

Download on the App Store